Regional Weather Roundup
Issued by NWS Cleveland, OH

Home | Current Version | Previous Version | Text Only | Print | Product List | Glossary Off
Versions: 1 2 3 4 5 6 7 8 9 10 11 12 13 14 15 16 17 18 19 20 21 22 23 24 25 26 27 28 29 30 31 32 33 34 35 36 37 38 39 40 41 42 43 44 45 46 47 48 49 50

000
ASUS41 KCLE 130210
RWRCLE
OHIO REGIONAL WEATHER ROUNDUP
NATIONAL WEATHER SERVICE CLEVELAND, OH
900 PM EST TUE DEC 12 2017

NOTE: "FAIR" INDICATES FEW OR NO CLOUDS BELOW 12,000 FEET WITH NO
SIGNIFICANT WEATHER AND/OR OBSTRUCTIONS TO VISIBILITY.

OHZ001>008-015>018-024>027-034-035-043-044-130300-
   NORTHWEST OHIO

CITY           SKY/WX    TMP DP  RH WIND       PRES   REMARKS
DEFIANCE       CLOUDY    19  10  68 W9        29.95F WCI   8
FINDLAY        CLOUDY    20   6  55 NW10      29.92S WCI   9
TOLEDO EXPRESS CLOUDY    18   5  57 W10       29.93S WCI   6
TOLEDO EXEC    PTCLDY    16   4  59 W8        29.93S WCI   5
LIMA           LGT SNOW  19  15  84 NW9       29.93F FOG     WCI   8
$$

OHZ009>014-019>023-028>033-038-089-130300-
   NORTHEAST OHIO

CITY           SKY/WX    TMP DP  RH WIND       PRES   REMARKS
CLE-HOPKINS    CLOUDY    20   3  48 NW21G31   29.87S WCI   4
CLE-LAKEFRONT  FLURRIES  21   6  52 NW30G39   29.85S WCI   3
CUY CO. ARPT   CLOUDY    19   7  58 NW23      29.83S WCI   2
LORAIN-ELYRIA  CLOUDY    19   2  47 NW15      29.87S WCI   5
ASHTABULA      LGT SNOW  16   5  62 NW18G26   29.79S WCI   0
AKRON-CANTON   LGT SNOW  16  10  77 W12       29.82S VSB 1   WCI   3
WOOSTER        CLEAR     15   4  61 NW15      29.85F WCI   0
MANSFIELD      PTCLDY    15   3  59 W8        29.86S WCI   4
YOUNGSTOWN     LGT SNOW  15  10  80 W12       29.78S WCI   2
$$

OHZ042-051>053-060>062-070>072-077>081-130300-
  SOUTHWEST OHIO

CITY           SKY/WX    TMP DP  RH WIND       PRES   REMARKS
CINC-COVINGTON PTCLDY    21   9  59 NW9       30.00S WCI  11
CINC-LUNKEN    CLEAR     23   8  52 N8        30.05R WCI  14
HAMILTON       CLEAR     21   9  59 NW8       30.03S WCI  11
DAYTON         CLOUDY    19  10  68 W15       29.97F WCI   5
WRIGHT-PAT AFB MOCLDY    20   7  57 W13       29.97S WCI   7
DAYTON GENERAL CLOUDY    21   8  57 W9        29.97S WCI  11
WILMINGTON     CLOUDY    21  10  62 NW16      29.96S WCI   7
$$

OHZ036-037-039>041-045>050-054>059-063>069-073>076-082>088-130300-
  CENTRAL AND SOUTHEAST OHIO

CITY           SKY/WX    TMP DP  RH WIND       PRES   REMARKS
COLUMBUS       LGT SNOW  21  15  78 N10       29.93S WCI  10
OSU AIRPORT    LGT SNOW  19  16  88 W14       29.93S FOG     WCI   6
BOLTON FIELD   LGT SNOW  19  17  88 NW8G17    29.95S VSB 1   WCI   9
RICKENBACK AFB CLOUDY    20  15  84 NW12G18   29.95S WCI   7
NEWARK         CLOUDY    21   9  59 W10G21    29.91S WCI  10
MARION         CLOUDY    20   7  57 NW15G22   29.91S WCI   6
LANCASTER      LGT SNOW  20  16  84 W7G17     29.93S VSB 1   WCI  11
ZANESVILLE     CLOUDY    21   8  57 NW12      29.89F WCI   9
NEW PHILLY     NOT AVBL
$$



USA.gov is the U.S. government's official web portal to all federal, state and local government web resources and services.